GW2327 Weather Reports


time (UTC)temp
C
wind
direction
speed
KPH
gust
KPH
rain 1hr
cm
rain 24hr
cm
rain mn
cm
humidity
%
barometer
mb
20260504174537 20 325 4.8 12.9 0.00 0.00 0.00 34 1009.5
20260504173034 18 5 3.2 16.1 0.00 0.00 0.00 40 1009.6
20260504171535 20 252 4.8 14.5 0.00 0.00 0.00 37 1009.7
20260504081544 6 0 0.0 3.2 0.00 0.00 0.00 62 1011.6
20260504044536 6 0 0.0 0.0 0.00 0.00 0.00 58 1011.4
20260504043102 6 0 0.0 0.0 0.00 0.00 0.00 57 1011.3
20260504041538 6 0 0.0 0.0 0.00 0.00 0.00 55 1011.2
20260504040042 6 0 0.0 0.0 0.00 0.00 0.00 54 1011.2
20260504034546 6 0 0.0 0.0 0.00 0.00 0.00 55 1011.1
20260504033033 7 0 0.0 0.0 0.00 0.00 0.00 53 1011.1
20260504031544 7 0 0.0 0.0 0.00 0.00 0.00 53 1011.1
20260504030055 7 0 0.0 0.0 0.00 0.00 0.00 51 1010.9
20260504024539 6 0 0.0 0.0 0.00 0.00 0.00 56 1011.0
20260504023041 7 0 0.0 0.0 0.00 0.00 0.00 55 1011.0
20260504021545 7 0 0.0 0.0 0.00 0.00 0.00 50 1010.9
20260504020038 7 0 0.0 0.0 0.00 0.00 0.00 51 1010.9
20260504014536 7 0 0.0 0.0 0.00 0.00 0.00 50 1010.8
20260504013050 7 0 0.0 0.0 0.00 0.00 0.00 49 1010.7
20260504011538 8 0 0.0 0.0 0.00 0.00 0.00 50 1010.5
20260504010050 8 0 0.0 0.0 0.00 0.00 0.00 51 1010.3
20260504004543 8 0 0.0 0.0 0.00 0.00 0.00 50 1010.0
20260504003035 8 184 0.0 3.2 0.00 0.00 0.00 47 1009.8
20260504001538 9 0 0.0 0.0 0.00 0.00 0.00 45 1009.6
20260504000040 10 0 0.0 1.6 0.00 0.00 0.00 42 1009.4
20260503234542 10 0 0.0 1.6 0.00 0.00 0.00 41 1009.2
20260503233038 10 183 0.0 4.8 0.00 0.00 0.00 41 1009.1
20260503231533 11 277 1.6 4.8 0.00 0.00 0.00 38 1009.1
20260503230050 11 0 1.6 11.3 0.00 0.00 0.00 41 1009.1
20260503224536 11 346 3.2 14.5 0.00 0.00 0.00 38 1009.0
20260503223051 11 294 6.4 22.5 0.00 0.00 0.00 39 1009.0
20260503221546 11 311 3.2 12.9 0.00 0.00 0.00 38 1008.8
20260503220039 11 222 6.4 24.1 0.00 0.00 0.00 38 1008.8
20260503214550 11 314 6.4 29.0 0.00 0.00 0.00 38 1008.8
20260503213040 12 305 6.4 16.1 0.00 0.00 0.00 37 1008.7
20260503211541 11 352 6.4 22.5 0.00 0.00 0.00 38 1008.7
20260503210039 12 21 6.4 22.5 0.00 0.00 0.00 37 1008.7
20260503204543 11 327 6.4 20.9 0.00 0.00 0.00 40 1008.6
20260503203037 11 258 4.8 25.7 0.00 0.00 0.00 42 1008.7
20260503201541 12 259 4.8 19.3 0.00 0.00 0.00 40 1008.7
20260503200036 10 308 6.4 32.2 0.00 0.00 0.00 42 1008.6
20260503194546 11 308 4.8 17.7 0.00 0.00 0.00 41 1008.6
20260503193037 11 314 11.3 33.8 0.00 0.00 0.00 42 1008.7
20260503191538 11 292 6.4 19.3 0.00 0.00 0.00 45 1008.6
20260503190043 11 311 6.4 25.7 0.00 0.00 0.00 44 1008.6
20260503184536 12 297 6.4 24.1 0.00 0.00 0.00 40 1008.6
20260503183042 11 315 8.0 20.9 0.00 0.00 0.00 41 1008.4
20260503181557 11 322 11.3 27.4 0.00 0.00 0.00 41 1008.4
20260503180046 11 336 12.9 22.5 0.00 0.00 0.00 39 1008.5